GFSFLT2_850_dewp_093.txt.gz
Dewpoint
4 5 8 12 13 13 12 12 11 9 9 10 10 10 11 9 9 8 8 8 7 5 10 10 10 10 9 10 10 10 10 10
4 6 8 12 13 12 13 13 12 11 10 10 10 10 8 8 8 7 8 9 8 6 8 10 10 10 10 11 11 11 10 10
4 7 10 13 13 13 13 13 13 12 10 10 10 9 8 9 9 9 8 9 8 8 7 9 10 10 11 11 10 10 10 9
4 8 8 13 12 13 13 13 12 12 11 10 9 9 10 10 10 8 8 8 9 9 8 9 10 11 11 9 8 6 7 8
4 6 8 11 11 12 13 13 12 12 12 11 10 10 11 10 9 7 8 9 9 9 10 10 11 10 9 8 7 8 7 7
5 7 7 7 11 11 12 12 12 12 12 12 11 11 10 9 8 9 9 8 9 9 10 10 10 8 8 7 7 5 4 7
5 7 6 6 9 11 9 11 12 12 12 12 11 10 9 8 9 9 9 9 11 10 10 9 9 8 8 8 6 5 -2 7
6 7 7 7 6 10 11 11 11 12 12 11 10 9 9 8 9 9 10 8 10 9 10 9 9 9 8 7 5 -5 -4 1
7 7 8 7 7 9 11 10 10 10 10 11 9 9 9 9 10 10 10 9 7 9 10 9 9 8 7 6 4 3 1 -1
7 7 8 8 8 9 11 10 10 10 9 11 10 10 9 10 11 10 9 10 9 8 9 10 10 7 7 7 5 5 5 4
7 7 8 8 9 10 10 10 9 9 9 11 11 11 10 10 10 10 10 10 8 8 10 10 9 7 7 7 6 6 6 6
7 7 8 9 9 9 10 9 10 10 9 11 11 10 10 10 10 10 10 10 8 10 10 10 9 7 7 7 6 7 6 6
6 6 8 9 9 10 10 10 10 10 10 10 9 10 10 11 10 10 11 10 9 10 10 9 8 7 7 7 7 7 7 6
4 6 7 9 9 9 9 6 8 10 10 11 10 10 10 10 10 10 10 10 9 10 10 8 7 7 7 8 8 7 7 6
-1 5 7 9 9 9 9 6 9 10 9 9 11 10 9 10 7 9 9 9 8 9 9 9 7 7 7 7 8 8 7 7
3 6 7 9 9 9 7 2 8 9 9 10 10 9 9 9 8 9 9 9 6 8 9 8 6 6 7 7 6 5 7 7
5 7 8 9 8 9 6 4 8 8 8 10 10 10 10 9 9 7 9 9 5 8 9 8 6 6 7 7 6 5 3 2
5 6 8 9 8 8 6 3 6 9 8 9 9 10 9 10 10 8 9 9 4 3 2 2 2 6 6 6 6 6 4 2
4 4 7 8 8 8 6 3 7 9 8 9 9 9 10 9 10 10 10 8 9 6 4 -0 1 6 6 6 6 6 4 1
6 6 6 7 8 8 6 4 7 8 9 9 9 9 10 9 10 10 10 9 9 8 5 -1 3 5 5 6 6 5 2 1

GFSFLT2_850_dewp_096.txt.gz
Dewpoint
-1 1 2 5 10 13 12 10 10 9 9 10 11 12 12 12 11 11 10 10 10 10 10 10 10 11 10 9 9 10 12 12
-0 2 3 8 12 13 13 12 11 10 10 10 10 11 12 12 10 8 9 9 8 9 10 9 9 10 10 9 10 10 12 11
1 3 3 11 12 13 14 13 12 11 10 10 10 10 10 11 9 8 9 9 8 9 10 10 9 10 10 10 10 11 11 10
2 4 4 6 9 11 12 13 13 12 11 11 10 10 11 12 9 9 10 10 9 10 11 9 8 10 11 11 11 11 10 9
5 4 5 8 8 11 12 13 12 12 12 11 11 12 11 9 10 11 10 10 10 10 10 9 10 10 11 11 11 10 8 8
6 4 5 6 10 11 11 12 12 12 12 12 11 10 10 9 10 11 11 9 9 10 8 9 10 11 11 11 10 9 8 7
7 5 6 7 9 9 9 11 12 12 13 12 11 10 10 10 11 11 9 9 9 9 9 11 10 10 10 10 10 9 8 7
8 6 6 7 5 5 8 9 11 12 12 12 12 11 12 11 11 11 9 9 9 9 9 11 10 10 10 9 9 9 8 7
12 7 6 7 6 6 8 10 10 10 11 11 12 12 12 11 10 10 9 9 8 9 9 10 10 10 10 10 9 7 7 7
12 9 6 7 7 6 7 10 11 11 10 10 10 11 10 10 10 11 10 9 9 9 9 10 10 10 10 9 8 7 7 7
12 10 8 7 8 7 7 10 11 10 9 10 10 10 10 10 11 11 10 10 9 7 8 10 10 10 9 9 8 8 8 8
11 12 8 7 8 8 8 10 11 10 9 9 9 10 11 10 10 11 10 10 10 9 9 9 9 9 9 9 8 9 9 9
10 12 8 8 8 9 8 10 12 11 9 9 9 11 11 10 10 10 10 10 10 9 10 10 9 9 9 9 9 9 9 9
9 11 7 8 8 9 8 9 11 10 9 9 10 10 10 10 10 10 10 10 10 9 9 9 9 9 9 9 8 8 9 8
8 11 5 8 8 9 9 10 11 10 9 10 10 10 10 10 10 10 10 10 10 8 9 9 9 9 8 7 8 7 8 9
9 11 6 8 8 9 9 9 9 8 8 10 10 10 10 10 10 10 10 10 9 8 10 10 9 9 9 8 7 6 7 8
10 11 7 7 8 10 9 11 9 9 9 9 10 10 11 10 7 10 10 10 10 10 10 10 9 9 8 8 8 8 7 6
11 9 9 8 9 9 9 10 9 10 9 9 10 10 10 10 9 8 9 9 8 9 9 9 8 8 7 8 8 8 7 6
11 10 9 9 9 9 9 8 9 10 9 9 10 10 9 10 10 10 9 9 10 9 6 8 9 5 7 7 8 8 6 5
12 12 10 9 9 9 8 9 4 10 10 9 9 9 10 9 10 10 9 7 8 9 7 7 6 6 6 5 7 8 7 7

GFSFLT2_850_dewp_102.txt.gz
Dewpoint
-1 -3 -4 -2 -2 -2 4 9 10 9 9 11 12 13 13 13 12 12 11 12 10 8 8 8 7 10 10 9 11 12 12 12
-1 -1 -3 -2 -1 -2 3 8 10 10 9 10 12 13 13 12 12 11 11 11 11 11 9 8 8 8 10 9 9 10 10 10
0 -0 -1 -2 -1 0 4 8 9 10 10 10 11 12 13 13 12 11 11 11 11 11 9 8 7 8 8 9 9 9 10 11
4 1 1 1 3 1 7 7 9 10 10 10 10 11 12 12 12 12 12 9 11 10 9 8 8 9 8 8 9 10 10 11
7 5 2 4 6 4 8 11 9 10 11 10 10 11 11 12 12 12 12 10 10 9 9 9 9 9 8 8 10 9 11 10
10 5 3 6 13 6 9 12 12 13 12 12 11 11 11 12 13 12 12 11 10 10 10 10 10 10 8 8 9 9 11 10
9 7 4 6 12 10 10 12 13 14 13 12 12 12 12 12 12 12 12 11 11 10 10 10 10 10 8 9 9 8 10 9
7 7 7 6 10 9 8 5 9 11 11 10 11 11 12 12 12 12 11 11 11 11 11 11 9 9 9 9 9 9 10 8
8 6 7 5 10 9 8 6 5 9 8 11 10 11 11 11 11 11 11 10 11 11 10 10 10 9 8 10 8 9 9 8
8 7 5 6 8 13 8 7 7 11 8 10 11 11 11 10 11 10 10 10 11 10 9 9 10 9 10 10 9 8 7 8
7 7 4 6 7 13 12 7 8 9 11 11 11 10 10 11 11 11 11 11 11 11 9 9 8 9 10 10 8 7 6 7
8 7 5 8 7 11 13 12 10 9 12 11 10 10 9 9 10 10 11 10 11 11 9 9 9 9 9 9 8 6 7 7
5 9 8 6 10 8 13 10 9 7 7 11 12 10 8 8 10 9 10 10 11 11 9 9 10 10 10 8 7 6 6 6
0 10 10 8 10 9 13 13 9 9 9 9 9 9 10 9 9 9 10 11 11 11 9 9 9 10 10 8 8 7 6 6
-3 2 11 10 10 13 13 13 12 12 11 11 11 11 10 10 10 10 10 10 10 11 9 9 9 10 9 8 9 8 8 7
1 -1 5 11 10 12 13 12 12 11 11 11 10 10 10 10 10 10 10 10 10 10 10 9 10 10 9 8 7 6 7 8
1 2 2 9 10 11 12 12 13 12 12 11 11 9 9 9 9 10 10 10 10 10 10 9 10 9 9 8 7 6 5 5
5 2 3 6 8 12 12 12 12 12 11 11 10 9 8 10 9 10 9 10 10 10 10 9 9 8 9 8 7 7 7 6
7 5 5 7 9 12 12 13 12 11 11 10 9 6 8 9 9 9 9 10 10 10 10 10 8 8 9 8 7 5 7 7
9 7 7 9 11 12 12 13 11 11 10 9 9 7 9 9 10 9 9 9 10 10 10 10 10 9 9 8 8 7 7 7

GFSFLT2_850_dewp_105.txt.gz
Dewpoint
-2 -3 -4 -4 -3 -5 -2 4 8 9 9 9 11 12 12 13 12 12 12 11 9 9 8 7 8 7 10 11 11 11 11 11
-1 -2 -3 -3 -2 -5 -3 2 6 8 8 9 11 12 13 13 13 12 11 11 11 8 9 8 7 8 9 10 10 10 11 11
1 -1 -2 -2 -2 -4 -4 -1 5 7 9 9 11 13 13 13 12 12 11 11 11 10 10 8 8 8 9 9 10 10 10 10
2 1 -1 -1 -1 -2 -4 -0 4 7 9 9 10 12 12 13 13 12 11 11 11 11 9 8 8 7 6 7 9 10 10 10
4 2 1 -1 -1 -0 -2 1 4 7 9 9 9 10 12 12 13 12 11 11 11 11 9 8 8 7 8 7 8 10 10 10
7 8 4 1 1 2 0 2 4 6 9 10 10 10 11 12 12 12 12 11 10 10 9 9 9 9 9 8 8 10 10 11
6 8 6 2 4 4 3 2 4 5 9 10 11 10 10 11 12 13 12 12 10 10 9 9 9 9 8 7 9 10 10 10
7 4 6 4 3 6 4 2 6 8 4 11 11 11 11 12 12 12 12 12 11 10 10 10 10 9 9 7 8 10 9 10
9 7 8 7 4 7 8 5 5 4 6 8 10 11 11 12 12 12 11 11 12 11 11 11 11 10 9 8 9 10 10 10
8 7 7 8 6 3 8 7 7 3 4 4 6 9 11 11 11 11 11 11 11 11 10 10 10 9 9 8 8 10 9 9
4 7 7 7 8 4 5 9 9 5 6 6 5 9 10 11 11 11 10 10 10 10 10 10 9 9 9 8 9 10 8 8
0 6 7 7 9 6 5 13 13 8 7 7 7 8 10 11 11 11 10 10 10 10 11 10 9 9 9 8 9 9 8 7
-0 5 7 9 10 8 6 8 13 11 10 10 10 8 8 9 9 10 10 11 12 11 10 10 10 9 10 10 10 9 8 7
-2 0 7 8 8 8 7 8 12 13 12 11 11 9 9 8 7 8 10 10 11 11 10 11 10 9 10 10 10 9 7 7
8 5 8 8 7 9 10 10 12 13 13 12 11 9 10 10 8 9 9 9 9 10 10 11 10 9 10 9 8 8 7 8
5 11 10 9 9 9 7 8 8 10 11 11 10 11 10 10 10 10 9 9 9 10 11 11 10 9 10 8 7 7 7 7
5 6 10 8 9 9 7 6 9 8 12 11 12 11 12 11 11 10 10 10 9 9 10 11 10 9 10 9 8 7 6 6
5 5 5 9 7 6 9 8 9 11 11 11 12 12 11 11 11 10 10 10 10 10 10 11 10 10 10 9 8 7 7 5
5 5 5 8 11 6 7 8 11 11 11 12 11 11 11 10 9 9 10 10 10 10 10 10 10 10 10 9 8 7 6 5
3 4 5 8 13 10 8 11 12 11 12 11 11 10 10 10 7 9 9 9 9 10 10 10 10 10 10 9 9 8 7 8

GFSFLT2_850_dewp_108.txt.gz
Dewpoint
-3 -4 -5 -4 -5 -7 -5 -2 5 9 10 10 10 12 12 12 12 12 11 10 9 8 7 7 7 8 10 12 11 11 11 11
-3 -4 -5 -4 -3 -6 -5 -1 4 7 8 8 10 11 12 12 12 12 12 11 9 9 8 7 8 8 11 11 11 10 11 11
-1 -3 -3 -3 -2 -4 -5 -2 3 7 8 8 10 11 12 12 12 12 12 11 10 9 8 8 7 8 10 10 10 9 10 10
2 -1 -2 -2 -2 -3 -5 -3 2 6 8 9 9 11 12 12 12 12 12 11 11 10 8 7 8 8 10 9 10 10 9 10
4 3 -1 -1 -1 -2 -3 -2 1 4 8 9 9 11 12 12 12 12 12 11 11 10 9 8 8 8 10 9 9 9 8 9
4 4 2 1 1 0 -2 -2 -0 2 6 9 9 10 11 12 12 12 12 11 11 10 9 8 8 8 9 9 9 9 8 9
6 3 1 2 2 3 2 0 -0 1 4 8 9 9 10 10 11 12 11 11 11 10 9 9 9 8 8 9 9 9 8 8
9 9 3 0 0 3 5 3 2 2 2 6 9 9 9 10 11 11 12 11 11 11 10 9 9 9 9 9 9 9 8 9
10 9 7 3 1 3 5 4 5 3 2 5 9 10 10 10 10 11 11 11 11 11 11 10 9 10 10 9 8 9 9 9
8 9 9 9 5 2 4 5 6 4 5 2 6 9 11 11 11 11 11 11 11 11 11 11 11 10 11 10 9 8 9 9
-3 6 10 9 8 6 4 6 7 6 7 5 5 7 10 11 11 11 11 11 11 11 11 10 10 10 9 10 10 9 9 9
-9 -8 5 11 10 9 9 11 9 8 9 6 7 6 9 10 11 11 11 11 11 10 10 10 10 9 9 9 9 9 9 9
-11 -11 -3 12 11 11 11 10 9 9 10 8 9 6 8 9 10 11 12 11 11 11 11 10 11 10 10 9 10 10 9 9
-7 -11 -8 3 11 10 10 8 9 8 9 9 9 10 9 9 9 11 12 12 12 11 11 11 11 10 10 10 10 10 10 9
2 2 -1 4 10 11 11 9 12 12 11 10 9 11 12 10 9 9 9 11 11 11 11 11 11 10 10 10 10 9 9 10
12 13 11 13 14 12 10 7 8 8 7 8 10 11 11 11 11 9 8 8 9 10 10 11 11 10 10 10 10 9 9 9
9 13 15 14 13 12 11 9 9 9 8 9 10 12 12 11 12 11 9 9 9 9 11 10 11 9 10 10 10 8 8 7
4 7 10 11 14 13 11 10 10 9 9 9 9 10 10 11 12 11 11 11 9 10 11 11 9 9 10 10 10 8 7 6
3 2 4 6 8 11 13 12 10 8 7 8 9 10 11 11 11 12 11 11 10 10 10 10 10 10 10 10 10 7 7 5
2 1 3 2 5 7 9 12 12 11 9 10 10 9 10 11 12 12 11 11 9 10 9 10 10 10 10 10 10 8 7 6

GFSFLT2_850_dewp_114.txt.gz
Dewpoint
-6 -6 -5 -4 -5 -7 -3 -0 3 8 10 11 11 11 11 11 11 10 10 10 9 8 6 6 7 7 9 10 11 11 11 10
-5 -6 -5 -4 -4 -7 -3 -0 3 7 10 12 11 11 11 11 11 11 10 10 9 8 7 7 6 7 9 10 11 11 11 11
-4 -5 -5 -5 -4 -6 -4 1 4 7 10 12 11 11 10 11 11 11 11 10 9 8 8 7 8 8 9 10 11 10 11 11
-4 -4 -5 -4 -4 -4 -4 -1 3 6 9 11 10 10 9 10 11 12 11 10 11 10 8 8 8 8 9 11 11 10 11 11
-3 -4 -4 -4 -4 -3 -3 -3 -1 4 7 9 9 9 9 9 11 12 12 12 12 10 10 9 8 8 8 10 10 10 10 9
-3 -3 -4 -4 -3 -3 -4 -4 -2 1 5 7 8 8 9 10 11 12 12 12 11 10 10 8 8 8 8 10 10 10 9 9
-1 -2 -2 -3 -3 -2 -3 -4 -3 -1 2 5 6 8 8 9 11 12 12 12 11 11 10 9 8 7 8 9 10 10 10 9
3 2 -0 -2 -2 -2 -2 -3 -3 -1 1 2 5 7 8 8 10 11 12 12 11 11 10 9 8 8 8 8 10 10 10 9
7 4 2 1 0 -1 -1 -1 -2 -1 -0 1 3 5 8 9 9 9 10 11 12 11 11 10 9 8 8 8 8 9 10 10
8 6 6 6 6 3 0 1 -0 -0 0 2 2 4 7 9 9 9 9 10 12 11 11 11 10 9 9 9 9 9 9 9
9 8 8 7 9 8 3 2 2 2 3 2 2 3 6 8 8 8 9 10 11 11 11 11 11 11 10 10 9 10 10 10
9 8 9 8 11 10 7 5 4 4 4 4 3 3 5 7 8 9 9 10 11 11 11 11 11 11 11 11 10 10 10 9
10 9 10 10 12 12 11 7 5 5 5 5 5 5 5 7 8 9 10 10 10 11 11 11 11 11 11 11 10 10 10 10
12 11 11 11 12 12 12 11 9 7 7 7 8 7 5 5 6 7 9 10 11 11 12 11 12 11 11 10 10 10 10 10
3 10 12 11 11 12 12 13 12 11 10 9 8 9 9 8 7 6 8 10 11 11 11 12 11 11 12 10 10 9 10 10
-3 -2 -1 5 10 12 13 12 11 10 10 10 10 10 10 10 9 9 7 11 13 12 11 10 10 10 9 10 10 10 10 10
9 6 1 5 13 12 15 14 11 12 11 11 10 10 10 10 10 10 9 10 13 11 10 10 10 9 8 9 9 9 10 9
11 11 11 11 12 13 13 13 13 11 13 12 10 9 8 9 11 10 10 10 11 11 11 11 10 9 9 9 10 10 10 10
8 9 11 12 12 12 13 13 13 12 12 11 6 8 8 8 9 10 11 11 11 11 11 11 11 10 9 9 9 10 10 9
5 5 7 9 11 12 12 12 13 14 13 12 11 10 9 9 9 9 11 10 10 11 11 10 10 10 9 9 9 9 10 10

GFSFLT2_850_dewp_117.txt.gz
Dewpoint
-4 -4 -4 -3 -3 -3 -1 4 6 7 9 10 10 11 10 10 9 9 10 10 10 10 9 7 6 7 8 9 10 10 12 11
-4 -5 -4 -2 -2 -1 -1 3 7 7 8 10 10 11 11 10 10 10 10 10 10 9 7 7 7 7 8 9 10 10 12 11
-3 -4 -5 -4 -3 -2 -0 1 7 9 10 10 11 11 11 11 11 11 10 11 9 8 7 8 7 7 9 10 10 11 11 11
-3 -4 -5 -4 -3 -2 1 3 4 9 11 10 11 11 11 11 11 11 11 10 9 9 8 8 8 8 9 10 10 10 11 11
-0 -2 -4 -3 -3 -2 0 4 3 5 10 10 10 11 11 11 12 12 11 11 9 11 9 8 8 8 8 9 11 10 10 11
-0 0 -2 -4 -3 -3 -2 1 3 2 6 10 10 10 10 10 11 12 12 11 10 11 10 9 9 8 8 9 11 10 10 10
2 0 -1 -2 -3 -2 -3 -2 2 3 2 7 9 9 9 9 10 12 12 12 12 12 10 9 9 8 8 9 11 10 10 9
2 2 -1 -1 -3 -2 -2 -3 -2 1 2 1 6 8 8 8 10 11 12 12 12 11 10 10 9 8 8 8 10 11 11 10
6 2 1 -1 -2 -2 -1 -2 -3 -1 1 -1 2 5 8 8 9 11 12 12 12 11 11 11 9 8 8 8 8 9 10 10
2 4 2 0 -0 -1 -0 -0 -1 -1 1 0 0 3 6 8 8 10 11 12 12 12 11 11 10 9 8 8 8 8 8 10
-4 8 4 4 2 1 0 1 1 -0 1 2 -0 0 4 7 8 9 10 11 12 12 12 11 11 10 10 9 9 9 9 9
-4 -1 9 7 7 4 3 3 3 2 1 1 1 -1 1 6 8 9 9 10 11 12 12 12 11 11 11 10 10 10 10 9
6 6 10 10 9 7 8 7 5 4 4 3 3 2 1 2 7 9 9 10 10 10 12 12 11 11 11 11 10 11 10 10
12 12 11 11 9 10 10 10 8 6 6 5 5 4 3 2 3 7 9 10 10 10 11 11 11 11 11 11 10 10 10 10
13 13 13 11 11 11 11 11 11 10 8 7 7 6 5 5 3 5 8 9 10 10 11 11 11 11 10 10 10 9 9 8
8 14 14 13 11 10 10 9 9 9 10 8 8 8 7 7 5 5 5 8 9 10 11 11 11 11 10 10 10 9 10 9
6 8 14 13 12 12 11 11 10 10 11 11 11 10 9 9 7 7 8 7 7 8 11 11 12 11 10 10 9 9 9 10
9 10 12 13 13 14 14 12 12 13 12 12 11 11 10 10 8 8 9 9 9 8 10 11 11 10 10 10 9 9 9 10
8 9 10 10 11 12 12 12 12 13 13 12 13 12 11 10 8 8 8 9 10 10 10 11 11 11 10 10 10 9 9 9
7 8 9 10 10 11 11 12 12 13 12 13 13 13 10 11 12 9 8 9 10 11 10 10 11 10 11 11 10 9 8 8